Regional Weather Roundup
Issued by NWS Cleveland, OH

Home | Current Version | Previous Version | Graphics & Text | Print | Product List | Glossary Off
Versions: 1 2 3 4 5 6 7 8 9 10 11 12 13 14 15 16 17 18 19 20 21 22 23 24 25 26 27 28 29 30 31 32 33 34 35 36 37 38 39 40 41 42 43 44 45 46 47 48 49 50

000
ASUS41 KCLE 201910
RWRCLE
OHIO REGIONAL WEATHER ROUNDUP
NATIONAL WEATHER SERVICE WILMINGTON, OH
300 PM EDT WED AUG 20 2014

NOTE: "FAIR" INDICATES FEW OR NO CLOUDS BELOW 12,000 FEET WITH NO
SIGNIFICANT WEATHER AND/OR OBSTRUCTIONS TO VISIBILITY.

OHZ001>008-015>018-024>027-034-035-043-044-202000-
   NORTHWEST OHIO

CITY           SKY/WX    TMP DP  RH WIND       PRES   REMARKS
DEFIANCE       PTSUNNY   83  64  52 SW12G20   29.92S
FINDLAY        MOSUNNY   84  66  54 SW15G22   29.93R
TOLEDO EXPRESS PTSUNNY   83  65  54 SW16G24   29.90R
TOLEDO METCALF PTSUNNY   83  64  52 SW13      29.91R
LIMA           MOSUNNY   82  69  64 W12       29.95R
$$

OHZ009>014-019>023-028>033-038-089-202000-
   NORTHEAST OHIO

CITY           SKY/WX    TMP DP  RH WIND       PRES   REMARKS
CLE-HOPKINS    PTSUNNY   79  69  71 S10       29.91F
CLE-LAKEFRONT  PTSUNNY   81  69  67 W13       29.87F
CUY CO. ARPT   PTSUNNY   81  70  69 SW12      29.91S
LORAIN-ELYRIA  SUNNY     84  68  58 W15G21    29.91S
ASHTABULA      PTSUNNY   78  67  68 S12       29.90F THUNDER
AKRON-CANTON   PTSUNNY   80  68  66 SW12      29.93F
WOOSTER        PTSUNNY   79  69  71 SW8       29.93F
MANSFIELD      MOSUNNY   82  68  62 W10G18    29.95R
YOUNGSTOWN     PTSUNNY   78  68  71 SW9       29.93S
$$

OHZ042-051>053-060>062-070>072-077>081-202000-
  SOUTHWEST OHIO

CITY           SKY/WX    TMP DP  RH WIND       PRES   REMARKS
CINC-COVINGTON CLOUDY    85  67  54 W9        29.98R
CINC-LUNKEN    MOSUNNY   87  66  49 W13       29.96R
HAMILTON       PTSUNNY   86  68  54 W8        29.97R
DAYTON         PTSUNNY   86  64  47 W14       29.98R
WRIGHT-PAT AFB MOSUNNY   86  64  48 W14       29.96R
DAYTON GENERAL PTSUNNY   86  65  49 W10       29.97R
WILMINGTON     MOSUNNY   84  67  56 W9        29.97R
$$

OHZ036-037-039>041-045>050-054>059-063>069-073>076-082>088-202000-
  CENTRAL AND SOUTHEAST OHIO

CITY           SKY/WX    TMP DP  RH WIND       PRES   REMARKS
COLUMBUS       MOSUNNY   87  64  46 SW14      29.93F
OSU AIRPORT    MOSUNNY   87  65  47 W12       29.94S
BOLTON FIELD   MOSUNNY   84  70  61 SW15      29.96R
RICKENBACK AFB MOSUNNY   88  61  39 W12G18    29.94S
NEWARK         PTSUNNY   80  69  69 SW10      29.94S
MARION         SUNNY     84  64  50 W14G20    29.94S
LANCASTER      MOSUNNY   84  67  56 SW9       29.95F
ZANESVILLE     MOSUNNY   82  66  58 SW10G21   29.95S
NEW PHILLY     SUNNY     80  70  71 VRB7      29.94F
$$


USA.gov is the U.S. government's official web portal to all federal, state and local government web resources and services.